User: anonymous   Login
Location: South Range
(44.4886°N, 65.7879°W)
Time: 00:38:06
(UTC-03:00)
Language:

Iridium 56 - Orbit

View from above orbital plane
View from above orbital plane
View from above satellite
View from above satellite

Ground track
Ground track

The orbit data is extracted from the following two-line orbital elements,

1 25170U 98010B   16180.39946255  .00000132  00000-0  40157-4 0  9999
2 25170  86.3978 138.3852 0002548  81.0571 279.0913 14.34214201961053
Epoch (UTC): 28 June 2016 09:35:13
Eccentricity: 0.0002548
inclination: 86.3978°
perigee height: 776 km
apogee height: 779 km
right ascension of ascending node: 138.3852°
argument of perigee: 81.0571°
revolutions per day: 14.34214201
mean anomaly at epoch: 279.0913°
orbit number at epoch: 96105

The dashed part of the orbit path shows where the satellite is in the earth's shadow,  

DLR